Location: Asheville, NC
(35.6000°N, 82.5500°W)
Time: 16:28:23

Vanguard 1 Rocket - Pass Details

Date: 11 December 2017
Orbit: 655 x 4222 km, 34.3° (Epoch: 20 March)

Event Time Altitude Azimuth Distance (km) Brightness Sun altitude
Rises 17:18:12 0° 234° (SW) 4,190 13.4 -1.0°
Reaches altitude 10° 17:20:30 10° 230° (SW) 3,513 12.2 -1.4°
Maximum altitude 17:29:45 61° 151° (SSE) 2,391 9.5 -3.1°
Drops below altitude 10° 17:48:02 10° 78° (ENE) 6,538 11.1 -6.4°
Enters shadow 17:50:20 - 77° (ENE) 7,089 11.3 -6.9°
